Simultaneous Nadir Overpasses (SNOs) Predictions

Prediction of SNOs between AQUA and GOES-15 Satellite Orbit:

Table of predicted SNOs for the next 14.0 days since TLE Epoch: 1/23/2022
Index Date Time (AQUA) AQUA Lat,Lon GOES-15 Lat,Lon Distance(km) Time Diff (sec)
1 01/23/2022 10:13:59 0.15,-129.37 -0.05,-128.35 115.42 80
2 01/25/2022 10:01:46 -0.44,-126.40 -0.04,-128.35 221.30 80
3 01/25/2022 22:23:10 -0.65,-131.59 0.04,-128.35 367.91 80
4 01/27/2022 22:10:57 -0.04,-128.62 0.03,-128.34 32.13 80
5 01/29/2022 21:58:44 0.57,-125.65 0.02,-128.32 303.11 80
6 01/30/2022 10:20:00 0.49,-130.81 -0.02,-128.30 284.59 80
7 02/01/2022 10:07:47 -0.13,-127.84 -0.02,-128.27 50.14 80
8 02/03/2022 09:55:34 -0.76,-124.87 -0.02,-128.25 384.60 80
9 02/03/2022 22:16:57 -0.37,-130.05 0.02,-128.25 205.06 80
10 02/05/2022 22:04:44 0.27,-127.08 0.02,-128.22 129.75 80
